DW5499 Weather Reports


time (UTC)temp
F
wind
direction
speed
knots
gust
knots
rain 1hr
in
rain 24hr
in
rain mn
in
humidity
%
barometer
mb
20260903034557 88 153 1.7 2.6 0.00 0.00 0.00 55 1011.1
20260903033102 88 160 0.9 2.6 0.00 0.00 0.00 56 1011.1
20260903031557 89 128 0.0 2.6 0.00 0.00 0.00 56 1011.1
20260903030119 89 156 0.0 2.6 0.00 0.00 0.00 54 1011.0
20260903024556 90 155 1.7 3.5 0.00 0.00 0.00 53 1011.0
20260903023056 90 166 0.9 2.6 0.00 0.00 0.00 54 1011.0
20260903021555 90 130 0.0 3.5 0.00 0.00 0.00 56 1010.8
20260903020105 90 158 0.0 1.7 0.00 0.00 0.00 54 1010.6
20260903014554 91 107 0.9 3.5 0.00 0.00 0.00 54 1010.5
20260903013055 92 170 0.0 2.6 0.00 0.00 0.00 50 1010.3
20260903011554 93 180 0.0 2.6 0.00 0.00 0.00 49 1010.2
20260903010053 94 189 0.0 3.5 0.00 0.00 0.00 47 1010.1
20260903004552 96 162 1.7 4.3 0.00 0.00 0.00 45 1010.0
20260903003051 96 97 1.7 4.3 0.00 0.00 0.00 44 1010.0
20260903001605 98 168 1.7 6.1 0.00 0.00 0.00 42 1009.9
20260903000056 99 149 0.9 5.2 0.00 0.00 0.00 41 1010.0
20260902234549 99 155 2.6 6.1 0.00 0.00 0.00 40 1010.1
20260902233055 100 164 2.6 5.2 0.00 0.00 0.00 39 1010.2
20260902231552 99 186 2.6 7.0 0.00 0.00 0.00 38 1010.1
20260902230050 100 207 3.5 10.4 0.00 0.00 0.00 38 1010.2
20260902224548 100 164 4.3 9.6 0.00 0.00 0.00 37 1010.2
20260902223047 100 184 6.1 12.2 0.00 0.00 0.00 37 1010.3
20260902221608 99 172 6.1 13.0 0.00 0.00 0.00 37 1010.2
20260902220048 100 209 5.2 11.3 0.00 0.00 0.00 37 1010.2
20260902214544 100 125 5.2 16.5 0.00 0.00 0.00 37 1010.4
20260902213048 101 141 3.5 12.2 0.00 0.00 0.00 36 1010.5
20260902211547 100 143 6.1 16.5 0.00 0.00 0.00 38 1010.7
20260902210039 100 134 6.1 12.2 0.00 0.00 0.00 38 1010.9
20260902204551 99 244 6.1 13.0 0.00 0.00 0.00 39 1010.9
20260902203035 99 195 8.7 14.8 0.00 0.00 0.00 39 1011.1
20260902201540 99 166 6.1 13.9 0.00 0.00 0.00 39 1011.3
20260902200036 99 197 7.8 16.5 0.00 0.00 0.00 40 1011.5
20260902194546 98 172 4.3 14.8 0.00 0.00 0.00 42 1011.8
20260902193028 98 170 6.1 14.8 0.00 0.00 0.00 42 1011.9
20260902191535 99 162 3.5 12.2 0.00 0.00 0.00 43 1012.0
20260902190022 98 176 6.1 12.2 0.00 0.00 0.00 45 1012.2
20260902184521 97 160 6.1 11.3 0.00 0.00 0.00 46 1012.5
20260902183019 96 205 7.0 11.3 0.00 0.00 0.00 47 1012.6
20260902181516 95 166 7.0 13.9 0.00 0.00 0.00 47 1012.8
20260902180016 95 266 7.8 13.9 0.00 0.00 0.00 48 1013.0
20260902174513 95 182 7.0 16.5 0.00 0.00 0.00 49 1013.1
20260902173012 94 155 3.5 13.0 0.00 0.00 0.00 50 1013.3
20260902171512 93 155 5.2 12.2 0.00 0.00 0.00 51 1013.4
20260902170009 92 225 8.7 15.6 0.00 0.00 0.00 52 1013.6
20260902164507 93 195 4.3 13.9 0.00 0.00 0.00 52 1013.6
20260902163004 91 214 7.8 12.2 0.00 0.00 0.00 53 1013.8
20260902161503 90 178 6.1 12.2 0.00 0.00 0.00 55 1013.7
20260902160110 89 131 3.5 11.3 0.00 0.00 0.00 57 1013.7
20260902154600 88 198 7.0 12.2 0.00 0.00 0.00 57 1013.7
20260902153054 87 180 3.5 12.2 0.00 0.00 0.00 60 1013.7
20260902151553 85 206 8.7 14.8 0.00 0.00 0.00 61 1013.6
20260902150049 84 222 7.0 12.2 0.00 0.00 0.00 62 1013.7
20260902144553 84 193 4.3 15.6 0.00 0.00 0.00 62 1013.7
20260902143046 83 163 7.0 13.9 0.00 0.00 0.00 62 1013.8
20260902141548 83 162 5.2 10.4 0.00 0.00 0.00 63 1014.0
20260902140046 83 162 5.2 8.7 0.00 0.00 0.00 63 1013.9
20260902134548 81 131 5.2 11.3 0.00 0.00 0.00 66 1013.9
20260902133044 80 158 6.1 11.3 0.00 0.00 0.00 66 1013.9
20260902131603 80 199 4.3 9.6 0.00 0.00 0.00 67 1013.9
20260902130052 79 156 3.5 8.7 0.00 0.00 0.00 68 1013.7
20260902124541 78 153 2.6 6.1 0.00 0.00 0.00 70 1013.7
20260902123041 75 182 0.9 5.2 0.00 0.00 0.00 76 1013.8
20260902121545 75 87 0.0 1.7 0.00 0.00 0.00 76 1013.5
20260902120037 76 86 0.0 2.6 0.00 0.00 0.00 74 1013.5
20260902114535 77 82 0.0 2.6 0.00 0.00 0.00 72 1013.4
20260902113034 77 133 0.9 4.3 0.00 0.00 0.00 69 1013.2
20260902111537 77 151 0.9 3.5 0.00 0.00 0.00 70 1013.3
20260902110043 77 147 0.9 2.6 0.00 0.00 0.00 70 1013.2
20260902104539 76 205 0.9 2.6 0.00 0.00 0.00 74 1013.3
20260902103034 76 126 0.0 0.9 0.00 0.00 0.00 75 1013.2
20260902101527 77 110 0.0 2.6 0.00 0.00 0.00 72 1013.1
20260902100027 78 148 0.0 2.6 0.00 0.00 0.00 68 1013.1
20260902094526 78 158 0.9 3.5 0.00 0.00 0.00 67 1013.0
20260902093035 77 127 0.0 2.6 0.00 0.00 0.00 72 1012.8
20260902091521 78 124 0.9 1.7 0.00 0.00 0.00 70 1012.7
20260902090018 80 101 0.9 4.3 0.00 0.00 0.00 64 1012.7
20260902084514 80 154 1.7 3.5 0.00 0.00 0.00 62 1012.6
20260902083012 81 170 1.7 7.0 0.00 0.00 0.00 60 1012.4
20260902081512 81 146 2.6 7.0 0.00 0.00 0.00 59 1012.3
20260902080018 82 161 2.6 7.8 0.00 0.00 0.00 59 1012.3
20260902074513 81 143 2.6 6.1 0.00 0.00 0.00 59 1012.3
20260902073024 81 189 1.7 6.1 0.00 0.00 0.00 60 1012.4
20260902071512 81 164 0.9 2.6 0.00 0.00 0.00 60 1012.3
20260902070009 81 184 0.9 4.3 0.00 0.00 0.00 59 1012.3
20260902064507 81 164 0.9 3.5 0.00 0.00 0.00 60 1012.5
20260902063012 81 158 0.9 2.6 0.00 0.00 0.00 61 1012.5
20260902061504 82 146 0.9 2.6 0.00 0.00 0.00 60 1012.6
20260902060127 83 159 0.0 3.5 0.00 0.00 0.00 58 1012.5
20260902054559 83 155 0.9 4.3 0.00 0.00 0.00 56 1012.5
20260902053058 83 158 1.7 3.5 0.00 0.00 0.00 56 1012.4
20260902051556 83 179 1.7 4.3 0.00 0.00 0.00 55 1012.5
20260902050054 83 179 2.6 5.2 0.00 0.00 0.00 55 1012.4
20260902044554 83 170 1.7 5.2 0.00 0.00 0.00 55 1012.3
20260902043055 84 185 0.9 5.2 0.00 0.00 0.00 55 1012.2
20260902041607 85 189 2.6 5.2 0.00 0.00 0.00 54 1012.2
20260902040053 86 168 2.6 5.2 0.00 0.00 0.00 53 1012.3